Wetterdaten: aktuell Montag, 05.12.2022 21:05
Datum Zeit Temp. A. Feuchte A. Luftdruck Regen Wind Richtung Richtung Sonnenschein UV Solar Taupunkt Windchill Windben Empfang
05.12.2022 21:05 -0,4 C 97 % 1019,5 hPa 0,0 l/m 6,4 km/h (2 Bft) W-SW 247 0 min 0,0 UV-I 0 W/m -0,8 C -0,4 C 11,3 km/h (2 Bft) 100,00 %
05.12.2022 21:00 -0,4 C 97 % 1019,6 hPa 0,0 l/m 4,8 km/h (1 Bft) W-SW 247 0 min 0,0 UV-I 0 W/m -0,8 C -0,4 C 8,0 km/h (2 Bft) 98,25 %
05.12.2022 20:55 -0,4 C 97 % 1019,6 hPa 0,0 l/m 8,0 km/h (2 Bft) W-SW 247 0 min 0,0 UV-I 0 W/m -0,8 C -2,1 C 12,9 km/h (3 Bft) 99,12 %
05.12.2022 20:50 -0,4 C 97 % 1019,6 hPa 0,0 l/m 9,7 km/h (2 Bft) W-SW 247 0 min 0,0 UV-I 0 W/m -0,8 C -3,6 C 12,9 km/h (3 Bft) 100,00 %
05.12.2022 20:45 -0,4 C 97 % 1019,6 hPa 0,0 l/m 8,0 km/h (2 Bft) W-SW 247 0 min 0,0 UV-I 0 W/m -0,8 C -2,1 C 12,9 km/h (3 Bft) 99,12 %
05.12.2022 20:40 -0,5 C 97 % 1019,8 hPa 0,0 l/m 4,8 km/h (1 Bft) SW 225 0 min 0,0 UV-I 0 W/m -0,9 C -0,5 C 8,0 km/h (2 Bft) 100,00 %
05.12.2022 20:35 -0,5 C 97 % 1019,8 hPa 0,0 l/m 6,4 km/h (2 Bft) SW 225 0 min 0,0 UV-I 0 W/m -0,9 C -0,5 C 8,0 km/h (2 Bft) 100,00 %
05.12.2022 20:30 -0,5 C 97 % 1019,6 hPa 0,0 l/m 8,0 km/h (2 Bft) W-SW 247 0 min 0,0 UV-I 0 W/m -0,9 C -2,2 C 14,5 km/h (3 Bft) 99,12 %
05.12.2022 20:25 -0,5 C 97 % 1019,6 hPa 0,0 l/m 11,3 km/h (2 Bft) W-SW 247 0 min 0,0 UV-I 0 W/m -0,9 C -5,1 C 14,5 km/h (3 Bft) 100,00 %
05.12.2022 20:20 -0,5 C 97 % 1019,8 hPa 0,0 l/m 9,7 km/h (2 Bft) W-SW 247 0 min 0,0 UV-I 0 W/m -0,9 C -3,7 C 16,1 km/h (3 Bft) 95,61 %
05.12.2022 20:15 -0,6 C 97 % 1019,7 hPa 0,0 l/m 11,3 km/h (2 Bft) W-SW 247 0 min 0,0 UV-I 0 W/m -1,0 C -5,2 C 16,1 km/h (3 Bft) 96,49 %
05.12.2022 20:10 -0,6 C 97 % 1019,7 hPa 0,0 l/m 11,3 km/h (2 Bft) W-SW 247 0 min 0,0 UV-I 0 W/m -1,0 C -5,2 C 19,3 km/h (3 Bft) 95,61 %
05.12.2022 20:05 -0,7 C 97 % 1019,7 hPa 0,0 l/m 8,0 km/h (2 Bft) W-SW 247 0 min 0,0 UV-I 0 W/m -1,1 C -2,4 C 14,5 km/h (3 Bft) 96,49 %
05.12.2022 20:00 -0,7 C 97 % 1019,9 hPa 0,0 l/m 11,3 km/h (2 Bft) W-SW 247 0 min 0,0 UV-I 0 W/m -1,1 C -5,3 C 14,5 km/h (3 Bft) 92,11 %
05.12.2022 19:55 -0,7 C 97 % 1019,9 hPa 0,0 l/m 9,7 km/h (2 Bft) W-SW 247 0 min 0,0 UV-I 0 W/m -1,1 C -4,0 C 14,5 km/h (3 Bft) 98,25 %
05.12.2022 19:50 -0,7 C 97 % 1019,9 hPa 0,0 l/m 6,4 km/h (2 Bft) W-SW 247 0 min 0,0 UV-I 0 W/m -1,1 C -0,7 C 12,9 km/h (3 Bft) 98,25 %
05.12.2022 19:45 -0,7 C 97 % 1019,8 hPa 0,0 l/m 6,4 km/h (2 Bft) W-SW 247 0 min 0,0 UV-I 0 W/m -1,1 C -0,7 C 12,9 km/h (3 Bft) 96,49 %
05.12.2022 19:40 -0,8 C 97 % 1019,9 hPa 0,0 l/m 6,4 km/h (2 Bft) SW 225 0 min 0,0 UV-I 0 W/m -1,2 C -0,8 C 11,3 km/h (2 Bft) 97,37 %
05.12.2022 19:35 -0,8 C 97 % 1019,8 hPa 0,0 l/m 6,4 km/h (2 Bft) W-SW 247 0 min 0,0 UV-I 0 W/m -1,2 C -0,8 C 11,3 km/h (2 Bft) 99,12 %
05.12.2022 19:30 -0,8 C 97 % 1019,8 hPa 0,0 l/m 8,0 km/h (2 Bft) W-SW 247 0 min 0,0 UV-I 0 W/m -1,2 C -2,5 C 12,9 km/h (3 Bft) 97,37 %
05.12.2022 19:25 -0,8 C 97 % 1019,8 hPa 0,0 l/m 8,0 km/h (2 Bft) W-SW 247 0 min 0,0 UV-I 0 W/m -1,2 C -2,5 C 14,5 km/h (3 Bft) 100,00 %
05.12.2022 19:20 -0,8 C 97 % 1019,8 hPa 0,0 l/m 8,0 km/h (2 Bft) W-SW 247 0 min 0,0 UV-I 0 W/m -1,2 C -2,5 C 12,9 km/h (3 Bft) 100,00 %
05.12.2022 19:15 -0,8 C 97 % 1019,8 hPa 0,0 l/m 9,7 km/h (2 Bft) W-SW 247 0 min 0,0 UV-I 0 W/m -1,2 C -4,1 C 16,1 km/h (3 Bft) 98,25 %
05.12.2022 19:10 -0,8 C 97 % 1019,8 hPa 0,0 l/m 9,7 km/h (2 Bft) W-SW 247 0 min 0,0 UV-I 0 W/m -1,2 C -4,1 C 16,1 km/h (3 Bft) 95,61 %
05.12.2022 19:05 -0,8 C 97 % 1019,7 hPa 0,0 l/m 9,7 km/h (2 Bft) W-SW 247 0 min 0,0 UV-I 0 W/m -1,2 C -4,1 C 14,5 km/h (3 Bft) 95,61 %
05.12.2022 19:00 -0,8 C 97 % 1019,9 hPa 0,0 l/m 6,4 km/h (2 Bft) W-SW 247 0 min 0,0 UV-I 0 W/m -1,2 C -0,8 C 12,9 km/h (3 Bft) 96,49 %
05.12.2022 18:55 -0,8 C 97 % 1019,8 hPa 0,0 l/m 4,8 km/h (1 Bft) W-SW 247 0 min 0,0 UV-I 0 W/m -1,2 C -0,8 C 9,7 km/h (2 Bft) 96,49 %
05.12.2022 18:50 -0,8 C 97 % 1019,8 hPa 0,0 l/m 8,0 km/h (2 Bft) W-SW 247 0 min 0,0 UV-I 0 W/m -1,2 C -2,5 C 14,5 km/h (3 Bft) 97,37 %
05.12.2022 18:45 -0,7 C 97 % 1019,9 hPa 0,0 l/m 8,0 km/h (2 Bft) W-SW 247 0 min 0,0 UV-I 0 W/m -1,1 C -2,4 C 14,5 km/h (3 Bft) 95,61 %
05.12.2022 18:40 -0,7 C 97 % 1019,8 hPa 0,0 l/m 8,0 km/h (2 Bft) W-SW 247 0 min 0,0 UV-I 0 W/m -1,1 C -2,4 C 14,5 km/h (3 Bft) 100,00 %
05.12.2022 18:35 -0,7 C 97 % 1019,9 hPa 0,0 l/m 11,3 km/h (2 Bft) W-SW 247 0 min 0,0 UV-I 0 W/m -1,1 C -5,3 C 19,3 km/h (3 Bft) 98,25 %
05.12.2022 18:30 -0,7 C 97 % 1019,9 hPa 0,0 l/m 12,9 km/h (3 Bft) W-SW 247 0 min 0,0 UV-I 0 W/m -1,1 C -6,5 C 19,3 km/h (3 Bft) 99,12 %
05.12.2022 18:25 -0,8 C 97 % 1019,8 hPa 0,0 l/m 11,3 km/h (2 Bft) W-SW 247 0 min 0,0 UV-I 0 W/m -1,2 C -5,4 C 17,7 km/h (3 Bft) 95,61 %
05.12.2022 18:20 -0,8 C 97 % 1019,8 hPa 0,0 l/m 12,9 km/h (3 Bft) W-SW 247 0 min 0,0 UV-I 0 W/m -1,2 C -6,6 C 17,7 km/h (3 Bft) 98,25 %
05.12.2022 18:15 -0,7 C 97 % 1019,8 hPa 0,0 l/m 8,0 km/h (2 Bft) W-SW 247 0 min 0,0 UV-I 0 W/m -1,1 C -2,4 C 17,7 km/h (3 Bft) 99,12 %
05.12.2022 18:10 -0,8 C 97 % 1019,8 hPa 0,0 l/m 12,9 km/h (3 Bft) W-SW 247 0 min 0,0 UV-I 0 W/m -1,2 C -6,6 C 19,3 km/h (3 Bft) 95,61 %
05.12.2022 18:05 -0,7 C 97 % 1019,8 hPa 0,0 l/m 12,9 km/h (3 Bft) W-SW 247 0 min 0,0 UV-I 0 W/m -1,1 C -6,5 C 20,9 km/h (4 Bft) 95,61 %
05.12.2022 18:00 -0,7 C 97 % 1019,8 hPa 0,0 l/m 11,3 km/h (2 Bft) W-SW 247 0 min 0,0 UV-I 0 W/m -1,1 C -5,3 C 20,9 km/h (4 Bft) 96,49 %
05.12.2022 17:55 -0,7 C 97 % 1019,8 hPa 0,0 l/m 12,9 km/h (3 Bft) W-SW 247 0 min 0,0 UV-I 0 W/m -1,1 C -6,5 C 17,7 km/h (3 Bft) 92,11 %
05.12.2022 17:50 -0,8 C 97 % 1019,8 hPa 0,0 l/m 11,3 km/h (2 Bft) W-SW 247 0 min 0,0 UV-I 0 W/m -1,2 C -5,4 C 16,1 km/h (3 Bft) 94,74 %
05.12.2022 17:45 -0,8 C 97 % 1019,8 hPa 0,0 l/m 8,0 km/h (2 Bft) W-SW 247 0 min 0,0 UV-I 0 W/m -1,2 C -2,5 C 12,9 km/h (3 Bft) 98,25 %
05.12.2022 17:40 -0,8 C 97 % 1019,9 hPa 0,0 l/m 8,0 km/h (2 Bft) W-SW 247 0 min 0,0 UV-I 0 W/m -1,2 C -2,5 C 14,5 km/h (3 Bft) 96,49 %
05.12.2022 17:35 -0,8 C 97 % 1019,9 hPa 0,0 l/m 9,7 km/h (2 Bft) W-SW 247 0 min 0,0 UV-I 0 W/m -1,2 C -4,1 C 14,5 km/h (3 Bft) 96,49 %
05.12.2022 17:30 -0,8 C 97 % 1020,0 hPa 0,0 l/m 9,7 km/h (2 Bft) W-SW 247 0 min 0,0 UV-I 0 W/m -1,2 C -4,1 C 17,7 km/h (3 Bft) 97,37 %
05.12.2022 17:25 -0,8 C 97 % 1020,0 hPa 0,0 l/m 9,7 km/h (2 Bft) W 270 0 min 0,0 UV-I 0 W/m -1,2 C -4,1 C 14,5 km/h (3 Bft) 96,49 %
05.12.2022 17:20 -0,8 C 97 % 1020,0 hPa 0,0 l/m 8,0 km/h (2 Bft) W-SW 247 0 min 0,0 UV-I 0 W/m -1,2 C -2,5 C 14,5 km/h (3 Bft) 100,00 %
05.12.2022 17:15 -0,8 C 97 % 1019,9 hPa 0,0 l/m 8,0 km/h (2 Bft) W-SW 247 0 min 0,0 UV-I 0 W/m -1,2 C -2,5 C 14,5 km/h (3 Bft) 99,12 %
05.12.2022 17:10 -0,8 C 97 % 1019,9 hPa 0,0 l/m 6,4 km/h (2 Bft) W 270 0 min 0,0 UV-I 0 W/m -1,2 C -0,8 C 11,3 km/h (2 Bft) 100,00 %
05.12.2022 17:05 -0,9 C 97 % 1019,9 hPa 0,0 l/m 8,0 km/h (2 Bft) W 270 0 min 0,0 UV-I 0 W/m -1,3 C -2,6 C 12,9 km/h (3 Bft) 100,00 %
05.12.2022 17:00 -0,9 C 97 % 1020,0 hPa 0,0 l/m 6,4 km/h (2 Bft) W-SW 247 0 min 0,0 UV-I 0 W/m -1,3 C -0,9 C 11,3 km/h (2 Bft) 100,00 %
05.12.2022 16:55 -0,9 C 97 % 1020,0 hPa 0,0 l/m 6,4 km/h (2 Bft) W-SW 247 0 min 0,0 UV-I 0 W/m -1,3 C -0,9 C 12,9 km/h (3 Bft) 100,00 %
05.12.2022 16:50 -0,9 C 97 % 1020,0 hPa 0,0 l/m 8,0 km/h (2 Bft) SW 225 0 min 0,0 UV-I 0 W/m -1,3 C -2,6 C 12,9 km/h (3 Bft) 98,25 %
05.12.2022 16:45 -0,9 C 97 % 1020,1 hPa 0,0 l/m 9,7 km/h (2 Bft) SW 225 0 min 0,0 UV-I 0 W/m -1,3 C -4,2 C 16,1 km/h (3 Bft) 99,12 %
05.12.2022 16:40 -0,9 C 97 % 1020,1 hPa 0,0 l/m 14,5 km/h (3 Bft) SW 225 0 min 0,0 UV-I 0 W/m -1,3 C -7,8 C 20,9 km/h (4 Bft) 100,00 %
05.12.2022 16:35 -0,9 C 97 % 1020,1 hPa 0,0 l/m 12,9 km/h (3 Bft) W-SW 247 0 min 0,0 UV-I 0 W/m -1,3 C -6,7 C 22,5 km/h (4 Bft) 96,49 %
05.12.2022 16:30 -1,0 C 97 % 1020,1 hPa 0,0 l/m 11,3 km/h (2 Bft) SW 225 0 min 0,0 UV-I 0 W/m -1,4 C -5,6 C 22,5 km/h (4 Bft) 100,00 %
05.12.2022 16:25 -1,0 C 97 % 1020,1 hPa 0,0 l/m 12,9 km/h (3 Bft) W-SW 247 0 min 0,0 UV-I 0 W/m -1,4 C -6,8 C 20,9 km/h (4 Bft) 100,00 %
05.12.2022 16:20 -1,1 C 96 % 1020,0 hPa 0,0 l/m 9,7 km/h (2 Bft) W-SW 247 0 min 0,0 UV-I 0 W/m -1,7 C -4,4 C 20,9 km/h (4 Bft) 100,00 %
05.12.2022 16:15 -1,0 C 96 % 1020,0 hPa 0,0 l/m 9,7 km/h (2 Bft) W-SW 247 0 min 0,0 UV-I 0 W/m -1,6 C -4,3 C 16,1 km/h (3 Bft) 99,12 %
05.12.2022 16:10 -1,1 C 96 % 1020,0 hPa 0,0 l/m 11,3 km/h (2 Bft) SW 225 0 min 0,0 UV-I 0 W/m -1,7 C -5,7 C 22,5 km/h (4 Bft) 92,98 %
05.12.2022 16:05 -1,1 C 96 % 1020,1 hPa 0,0 l/m 12,9 km/h (3 Bft) SW 225 0 min 0,0 UV-I 0 W/m -1,7 C -6,9 C 20,9 km/h (4 Bft) 93,86 %
05.12.2022 16:00 -1,1 C 96 % 1020,1 hPa 0,0 l/m 11,3 km/h (2 Bft) W-SW 247 0 min 0,0 UV-I 0 W/m -1,7 C -5,7 C 19,3 km/h (3 Bft) 99,12 %
05.12.2022 15:55 -1,1 C 96 % 1020,0 hPa 0,0 l/m 11,3 km/h (2 Bft) W-SW 247 0 min 0,0 UV-I 0 W/m -1,7 C -5,7 C 16,1 km/h (3 Bft) 97,37 %
05.12.2022 15:50 -1,2 C 96 % 1020,0 hPa 0,0 l/m 9,7 km/h (2 Bft) W-SW 247 0 min 0,0 UV-I 7 W/m -1,8 C -4,5 C 20,9 km/h (4 Bft) 97,37 %
05.12.2022 15:45 -1,2 C 96 % 1019,9 hPa 0,0 l/m 11,3 km/h (2 Bft) W-SW 247 0 min 0,0 UV-I 11 W/m -1,8 C -5,8 C 20,9 km/h (4 Bft) 85,96 %
05.12.2022 15:40 -1,2 C 96 % 1020,0 hPa 0,0 l/m 11,3 km/h (2 Bft) W-SW 247 0 min 0,0 UV-I 18 W/m -1,8 C -5,8 C 19,3 km/h (3 Bft) 90,35 %
05.12.2022 15:35 -1,2 C 96 % 1019,8 hPa 0,0 l/m 8,0 km/h (2 Bft) W-SW 247 0 min 0,0 UV-I 23 W/m -1,8 C -2,9 C 19,3 km/h (3 Bft) 98,25 %
05.12.2022 15:30 -1,2 C 96 % 1019,8 hPa 0,0 l/m 9,7 km/h (2 Bft) W 270 0 min 0,0 UV-I 32 W/m -1,8 C -4,5 C 19,3 km/h (3 Bft) 89,47 %
05.12.2022 15:25 -1,2 C 96 % 1019,8 hPa 0,0 l/m 9,7 km/h (2 Bft) W 270 0 min 0,0 UV-I 42 W/m -1,8 C -4,5 C 16,1 km/h (3 Bft) 93,86 %
05.12.2022 15:20 -1,2 C 96 % 1019,8 hPa 0,0 l/m 11,3 km/h (2 Bft) W 270 0 min 0,0 UV-I 44 W/m -1,8 C -5,8 C 17,7 km/h (3 Bft) 91,23 %
05.12.2022 15:15 -1,3 C 96 % 1019,7 hPa 0,0 l/m 11,3 km/h (2 Bft) W-NW 292 0 min 0,0 UV-I 40 W/m -1,9 C -6,0 C 19,3 km/h (3 Bft) 92,98 %
05.12.2022 15:10 -1,3 C 96 % 1019,8 hPa 0,0 l/m 8,0 km/h (2 Bft) W-SW 247 0 min 0,0 UV-I 35 W/m -1,9 C -3,0 C 14,5 km/h (3 Bft) 85,09 %
05.12.2022 15:05 -1,3 C 96 % 1019,8 hPa 0,0 l/m 8,0 km/h (2 Bft) W 270 0 min 0,0 UV-I 33 W/m -1,9 C -3,0 C 12,9 km/h (3 Bft) 92,98 %
05.12.2022 15:00 -1,3 C 96 % 1019,6 hPa 0,0 l/m 9,7 km/h (2 Bft) W-NW 292 0 min 0,0 UV-I 30 W/m -1,9 C -4,6 C 14,5 km/h (3 Bft) 99,12 %
05.12.2022 14:55 -1,3 C 96 % 1019,6 hPa 0,0 l/m 6,4 km/h (2 Bft) W 270 0 min 0,0 UV-I 21 W/m -1,9 C -1,3 C 14,5 km/h (3 Bft) 99,12 %
05.12.2022 14:50 -1,3 C 96 % 1019,6 hPa 0,0 l/m 8,0 km/h (2 Bft) SW 225 0 min 0,0 UV-I 19 W/m -1,9 C -3,0 C 17,7 km/h (3 Bft) 92,98 %
05.12.2022 14:45 -1,3 C 96 % 1019,6 hPa 0,0 l/m 8,0 km/h (2 Bft) W-SW 247 0 min 0,0 UV-I 21 W/m -1,9 C -3,0 C 16,1 km/h (3 Bft) 93,86 %
05.12.2022 14:40 -1,3 C 96 % 1019,5 hPa 0,0 l/m 6,4 km/h (2 Bft) W-SW 247 0 min 0,0 UV-I 33 W/m -1,9 C -1,3 C 12,9 km/h (3 Bft) 97,37 %
05.12.2022 14:35 -1,4 C 96 % 1019,6 hPa 0,0 l/m 8,0 km/h (2 Bft) W-NW 292 0 min 0,0 UV-I 39 W/m -2,0 C -3,1 C 16,1 km/h (3 Bft) 85,09 %
05.12.2022 14:30 -1,4 C 96 % 1019,3 hPa 0,0 l/m 11,3 km/h (2 Bft) W-NW 292 0 min 0,0 UV-I 33 W/m -2,0 C -6,1 C 20,9 km/h (4 Bft) 90,35 %
05.12.2022 14:25 -1,3 C 96 % 1019,2 hPa 0,0 l/m 9,7 km/h (2 Bft) W-NW 292 0 min 0,0 UV-I 35 W/m -1,9 C -4,6 C 16,1 km/h (3 Bft) 89,47 %
05.12.2022 14:20 -1,3 C 96 % 1019,3 hPa 0,0 l/m 8,0 km/h (2 Bft) W 270 0 min 0,0 UV-I 39 W/m -1,9 C -3,0 C 17,7 km/h (3 Bft) 82,46 %
05.12.2022 14:15 -1,3 C 96 % 1019,2 hPa 0,0 l/m 11,3 km/h (2 Bft) W-NW 292 0 min 0,0 UV-I 40 W/m -1,9 C -6,0 C 17,7 km/h (3 Bft) 88,60 %
05.12.2022 14:10 -1,2 C 96 % 1018,9 hPa 0,0 l/m 11,3 km/h (2 Bft) W-NW 292 0 min 0,0 UV-I 37 W/m -1,8 C -5,8 C 22,5 km/h (4 Bft) 90,35 %
05.12.2022 14:05 -1,3 C 96 % 1019,0 hPa 0,0 l/m 8,0 km/h (2 Bft) W-NW 292 0 min 0,0 UV-I 35 W/m -1,9 C -3,0 C 14,5 km/h (3 Bft) 86,84 %
05.12.2022 14:00 -1,3 C 96 % 1019,2 hPa 0,0 l/m 6,4 km/h (2 Bft) NW 315 0 min 0,0 UV-I 49 W/m -1,9 C -1,3 C 14,5 km/h (3 Bft) 90,35 %
05.12.2022 13:55 -1,3 C 96 % 1019,2 hPa 0,0 l/m 6,4 km/h (2 Bft) W-NW 292 0 min 0,0 UV-I 58 W/m -1,9 C -1,3 C 14,5 km/h (3 Bft) 90,35 %
05.12.2022 13:50 -1,3 C 96 % 1019,2 hPa 0,0 l/m 9,7 km/h (2 Bft) NW 315 0 min 0,0 UV-I 95 W/m -1,9 C -4,6 C 16,1 km/h (3 Bft) 100,00 %
05.12.2022 13:45 -1,3 C 96 % 1019,2 hPa 0,0 l/m 8,0 km/h (2 Bft) W-NW 292 0 min 0,0 UV-I 123 W/m -1,9 C -3,0 C 17,7 km/h (3 Bft) 96,49 %
05.12.2022 13:40 -1,3 C 96 % 1019,1 hPa 0,0 l/m 8,0 km/h (2 Bft) W-NW 292 0 min 0,0 UV-I 100 W/m -1,9 C -3,0 C 12,9 km/h (3 Bft) 100,00 %
05.12.2022 13:35 -1,4 C 95 % 1019,1 hPa 0,0 l/m 9,7 km/h (2 Bft) W-NW 292 5 min 0,5 UV-I 188 W/m -2,1 C -4,7 C 14,5 km/h (3 Bft) 100,00 %
05.12.2022 13:30 -1,5 C 95 % 1019,1 hPa 0,0 l/m 12,9 km/h (3 Bft) W-NW 292 5 min 0,5 UV-I 165 W/m -2,2 C -7,4 C 19,3 km/h (3 Bft) 100,00 %
05.12.2022 13:25 -1,4 C 95 % 1019,1 hPa 0,0 l/m 11,3 km/h (2 Bft) W-NW 292 0 min 0,5 UV-I 134 W/m -2,1 C -6,1 C 16,1 km/h (3 Bft) 100,00 %
05.12.2022 13:20 -1,3 C 95 % 1019,2 hPa 0,0 l/m 4,8 km/h (1 Bft) W 270 0 min 0,0 UV-I 125 W/m -2,0 C -1,3 C 11,3 km/h (2 Bft) 100,00 %
05.12.2022 13:15 -1,1 C 95 % 1019,0 hPa 0,0 l/m 6,4 km/h (2 Bft) W-SW 247 0 min 0,5 UV-I 113 W/m -1,8 C -1,1 C 12,9 km/h (3 Bft) 98,25 %
05.12.2022 13:10 -0,8 C 95 % 1018,8 hPa 0,0 l/m 3,2 km/h (1 Bft) W-NW 292 0 min 0,7 UV-I 125 W/m -1,5 C -0,8 C 9,7 km/h (2 Bft) 97,37 %
05.12.2022 13:05 -1,0 C 94 % 1018,9 hPa 0,0 l/m 3,2 km/h (1 Bft) N-NW 337 0 min 0,7 UV-I 118 W/m -1,8 C -1,0 C 4,8 km/h (1 Bft) 100,00 %
05.12.2022 13:00 -0,8 C 94 % 1019,1 hPa 0,0 l/m 1,6 km/h (1 Bft) N 360 0 min 0,6 UV-I 102 W/m -1,6 C -0,8 C 4,8 km/h (1 Bft) 100,00 %
05.12.2022 12:55 -0,8 C 93 % 1019,1 hPa 0,0 l/m 3,2 km/h (1 Bft) N 360 5 min 0,7 UV-I 220 W/m -1,8 C -0,8 C 4,8 km/h (1 Bft) 100,00 %
05.12.2022 12:50 -0,1 C 93 % 1019,0 hPa 0,0 l/m 1,6 km/h (1 Bft) S-SW 202 5 min 0,9 UV-I 258 W/m -1,1 C -0,1 C 6,4 km/h (2 Bft) 100,00 %
05.12.2022 12:45 0,2 C 92 % 1018,9 hPa 0,0 l/m 3,2 km/h (1 Bft) S-SO 157 5 min 0,9 UV-I 230 W/m -0,9 C 0,2 C 8,0 km/h (2 Bft) 100,00 %
05.12.2022 12:40 0,4 C 88 % 1018,9 hPa 0,0 l/m 4,8 km/h (1 Bft) SW 225 5 min 0,8 UV-I 218 W/m -1,3 C 0,4 C 8,0 km/h (2 Bft) 100,00 %
05.12.2022 12:35 2,8 C 87 % 1018,8 hPa 0,0 l/m 3,2 km/h (1 Bft) O-SO 112 5 min 1,0 UV-I 292 W/m 0,9 C 2,8 C 6,4 km/h (2 Bft) 100,00 %
05.12.2022 12:30 2,9 C 82 % 1018,8 hPa 0,0 l/m 4,8 km/h (1 Bft) O-SO 112 5 min 1,0 UV-I 306 W/m 0,1 C 2,9 C 9,7 km/h (2 Bft) 100,00 %
05.12.2022 12:25 3,9 C 83 % 1018,9 hPa 0,0 l/m 3,2 km/h (1 Bft) SO 135 5 min 0,9 UV-I 216 W/m 1,3 C 3,9 C 6,4 km/h (2 Bft) 100,00 %
05.12.2022 12:20 2,3 C 94 % 1018,9 hPa 0,0 l/m 3,2 km/h (1 Bft) S-SO 157 5 min 0,9 UV-I 197 W/m 1,4 C 2,3 C 6,4 km/h (2 Bft) 100,00 %
05.12.2022 12:15 0,4 C 92 % 1019,1 hPa 0,0 l/m 1,6 km/h (1 Bft) S-SO 157 5 min 0,9 UV-I 218 W/m -0,7 C 0,4 C 8,0 km/h (2 Bft) 100,00 %
05.12.2022 12:10 0,8 C 89 % 1019,3 hPa 0,0 l/m 1,6 km/h (1 Bft) S-SW 202 5 min 0,8 UV-I 169 W/m -0,8 C 0,8 C 8,0 km/h (2 Bft) 100,00 %
05.12.2022 12:05 2,9 C 87 % 1019,3 hPa 0,0 l/m 0,0 km/h (0 Bft) S-SW 202 5 min 0,8 UV-I 179 W/m 1,0 C 2,9 C 3,2 km/h (1 Bft) 100,00 %
05.12.2022 12:00 1,3 C 89 % 1019,3 hPa 0,0 l/m 0,0 km/h (0 Bft) S-SW 202 5 min 1,0 UV-I 264 W/m -0,3 C 1,3 C 3,2 km/h (1 Bft) 100,00 %
05.12.2022 11:55 -0,2 C 89 % 1019,3 hPa 0,0 l/m 1,6 km/h (1 Bft) SW 225 5 min 0,9 UV-I 251 W/m -1,8 C -0,2 C 4,8 km/h (1 Bft) 100,00 %
05.12.2022 11:50 1,7 C 82 % 1019,4 hPa 0,0 l/m 1,6 km/h (1 Bft) W-SW 247 5 min 1,0 UV-I 223 W/m -1,0 C 1,7 C 6,4 km/h (2 Bft) 100,00 %
05.12.2022 11:45 3,6 C 80 % 1019,5 hPa 0,0 l/m 3,2 km/h (1 Bft) NW 315 5 min 1,0 UV-I 297 W/m 0,5 C 3,6 C 6,4 km/h (2 Bft) 100,00 %
05.12.2022 11:40 2,6 C 85 % 1019,6 hPa 0,0 l/m 3,2 km/h (1 Bft) W 270 5 min 1,0 UV-I 313 W/m 0,3 C 2,6 C 6,4 km/h (2 Bft) 100,00 %
05.12.2022 11:35 2,3 C 80 % 1019,8 hPa 0,0 l/m 3,2 km/h (1 Bft) W-NW 292 5 min 0,9 UV-I 213 W/m -0,8 C 2,3 C 6,4 km/h (2 Bft) 100,00 %
05.12.2022 11:30 3,5 C 79 % 1019,6 hPa 0,0 l/m 6,4 km/h (2 Bft) W-NW 292 5 min 0,9 UV-I 216 W/m 0,2 C 3,5 C 8,0 km/h (2 Bft) 100,00 %
05.12.2022 11:25 3,2 C 81 % 1019,7 hPa 0,0 l/m 3,2 km/h (1 Bft) NW 315 5 min 0,9 UV-I 209 W/m 0,3 C 3,2 C 4,8 km/h (1 Bft) 100,00 %
05.12.2022 11:20 3,2 C 81 % 1019,6 hPa 0,0 l/m 4,8 km/h (1 Bft) NW 315 5 min 0,9 UV-I 192 W/m 0,3 C 3,2 C 8,0 km/h (2 Bft) 99,12 %
05.12.2022 11:15 2,9 C 81 % 1019,7 hPa 0,0 l/m 6,4 km/h (2 Bft) W-NW 292 5 min 1,0 UV-I 262 W/m -0,0 C 2,9 C 11,3 km/h (2 Bft) 100,00 %
05.12.2022 11:10 2,9 C 82 % 1019,7 hPa 0,0 l/m 6,4 km/h (2 Bft) W-NW 292 5 min 1,0 UV-I 258 W/m 0,1 C 2,9 C 9,7 km/h (2 Bft) 100,00 %
05.12.2022 11:05 3,0 C 81 % 1019,7 hPa 0,0 l/m 6,4 km/h (2 Bft) W-NW 292 5 min 0,9 UV-I 195 W/m 0,1 C 3,0 C 8,0 km/h (2 Bft) 100,00 %
05.12.2022 11:00 3,3 C 80 % 1019,8 hPa 0,0 l/m 4,8 km/h (1 Bft) NW 315 5 min 0,9 UV-I 250 W/m 0,2 C 3,3 C 8,0 km/h (2 Bft) 100,00 %
05.12.2022 10:55 3,6 C 79 % 1019,9 hPa 0,0 l/m 4,8 km/h (1 Bft) NW 315 5 min 0,9 UV-I 236 W/m 0,3 C 3,6 C 8,0 km/h (2 Bft) 100,00 %
05.12.2022 10:50 3,4 C 79 % 1019,9 hPa 0,0 l/m 6,4 km/h (2 Bft) NW 315 5 min 0,9 UV-I 209 W/m 0,1 C 3,4 C 11,3 km/h (2 Bft) 100,00 %
05.12.2022 10:45 3,4 C 79 % 1019,8 hPa 0,0 l/m 4,8 km/h (1 Bft) NW 315 5 min 0,8 UV-I 155 W/m 0,1 C 3,4 C 8,0 km/h (2 Bft) 98,25 %
05.12.2022 10:40 3,8 C 78 % 1019,9 hPa 0,0 l/m 4,8 km/h (1 Bft) SW 225 5 min 0,9 UV-I 251 W/m 0,3 C 3,8 C 6,4 km/h (2 Bft) 99,12 %
05.12.2022 10:35 4,3 C 75 % 1019,8 hPa 0,0 l/m 4,8 km/h (1 Bft) SW 225 5 min 0,9 UV-I 255 W/m 0,3 C 4,3 C 8,0 km/h (2 Bft) 96,49 %
05.12.2022 10:30 5,7 C 71 % 1019,9 hPa 0,0 l/m 3,2 km/h (1 Bft) S-SO 157 5 min 0,9 UV-I 316 W/m 0,9 C 5,7 C 6,4 km/h (2 Bft) 100,00 %
05.12.2022 10:25 5,1 C 74 % 1019,8 hPa 0,0 l/m 1,6 km/h (1 Bft) S-SO 157 5 min 0,9 UV-I 323 W/m 0,9 C 5,1 C 6,4 km/h (2 Bft) 100,00 %
05.12.2022 10:20 5,0 C 74 % 1019,7 hPa 0,0 l/m 3,2 km/h (1 Bft) S-SO 157 5 min 0,9 UV-I 313 W/m 0,8 C 5,0 C 6,4 km/h (2 Bft) 100,00 %
05.12.2022 10:15 4,9 C 73 % 1019,7 hPa 0,0 l/m 4,8 km/h (1 Bft) S-SO 157 5 min 0,9 UV-I 290 W/m 0,5 C 4,9 C 6,4 km/h (2 Bft) 98,25 %
05.12.2022 10:10 5,7 C 74 % 1019,6 hPa 0,0 l/m 1,6 km/h (1 Bft) S-SO 157 5 min 0,9 UV-I 258 W/m 1,4 C 5,7 C 6,4 km/h (2 Bft) 100,00 %
05.12.2022 10:05 5,6 C 72 % 1019,7 hPa 0,0 l/m 3,2 km/h (1 Bft) S-SO 157 5 min 0,9 UV-I 308 W/m 1,0 C 5,6 C 8,0 km/h (2 Bft) 100,00 %
05.12.2022 10:00 5,7 C 74 % 1019,7 hPa 0,0 l/m 1,6 km/h (1 Bft) S-SW 202 5 min 0,8 UV-I 292 W/m 1,4 C 5,7 C 4,8 km/h (1 Bft) 100,00 %
05.12.2022 09:55 5,5 C 72 % 1019,6 hPa 0,0 l/m 4,8 km/h (1 Bft) S-SW 202 5 min 0,8 UV-I 279 W/m 0,9 C 5,5 C 9,7 km/h (2 Bft) 100,00 %
05.12.2022 09:50 5,8 C 73 % 1019,6 hPa 0,0 l/m 6,4 km/h (2 Bft) S-SW 202 5 min 0,8 UV-I 269 W/m 1,3 C 5,8 C 9,7 km/h (2 Bft) 100,00 %
05.12.2022 09:45 5,7 C 71 % 1019,6 hPa 0,0 l/m 8,0 km/h (2 Bft) S-SW 202 5 min 0,7 UV-I 255 W/m 0,9 C 4,3 C 14,5 km/h (3 Bft) 100,00 %
05.12.2022 09:40 5,7 C 73 % 1019,6 hPa 0,0 l/m 8,0 km/h (2 Bft) S-SW 202 5 min 0,7 UV-I 257 W/m 1,2 C 4,3 C 12,9 km/h (3 Bft) 95,61 %
05.12.2022 09:35 5,6 C 71 % 1019,6 hPa 0,0 l/m 9,7 km/h (2 Bft) S-SW 202 5 min 0,7 UV-I 285 W/m 0,8 C 2,9 C 12,9 km/h (3 Bft) 100,00 %
05.12.2022 09:30 5,6 C 71 % 1019,4 hPa 0,0 l/m 8,0 km/h (2 Bft) S-SW 202 5 min 0,6 UV-I 288 W/m 0,8 C 4,2 C 12,9 km/h (3 Bft) 100,00 %
05.12.2022 09:25 5,2 C 72 % 1019,3 hPa 0,0 l/m 9,7 km/h (2 Bft) S-SW 202 5 min 0,5 UV-I 221 W/m 0,6 C 2,5 C 12,9 km/h (3 Bft) 100,00 %
05.12.2022 09:20 5,2 C 72 % 1019,2 hPa 0,0 l/m 9,7 km/h (2 Bft) S-SW 202 0 min 0,0 UV-I 67 W/m 0,6 C 2,5 C 12,9 km/h (3 Bft) 100,00 %
05.12.2022 09:15 5,3 C 72 % 1019,1 hPa 0,0 l/m 9,7 km/h (2 Bft) S-SW 202 0 min 0,0 UV-I 134 W/m 0,7 C 2,6 C 12,9 km/h (3 Bft) 100,00 %
05.12.2022 09:10 5,3 C 72 % 1019,0 hPa 0,0 l/m 11,3 km/h (2 Bft) S-SW 202 5 min 0,0 UV-I 165 W/m 0,7 C 1,5 C 16,1 km/h (3 Bft) 100,00 %
05.12.2022 09:05 5,2 C 72 % 1019,0 hPa 0,0 l/m 12,9 km/h (3 Bft) S-SW 202 5 min 0,0 UV-I 163 W/m 0,6 C 0,5 C 17,7 km/h (3 Bft) 99,12 %
05.12.2022 09:00 5,2 C 72 % 1019,0 hPa 0,0 l/m 12,9 km/h (3 Bft) S-SW 202 0 min 0,0 UV-I 97 W/m 0,6 C 0,5 C 19,3 km/h (3 Bft) 100,00 %
05.12.2022 08:55 5,3 C 72 % 1019,0 hPa 0,0 l/m 14,5 km/h (3 Bft) S-SW 202 0 min 0,0 UV-I 53 W/m 0,7 C -0,3 C 20,9 km/h (4 Bft) 100,00 %
05.12.2022 08:50 5,6 C 71 % 1019,1 hPa 0,0 l/m 14,5 km/h (3 Bft) S-SW 202 0 min 0,0 UV-I 113 W/m 0,8 C 0,1 C 19,3 km/h (3 Bft) 97,37 %
05.12.2022 08:45 5,7 C 70 % 1019,1 hPa 0,0 l/m 14,5 km/h (3 Bft) S-SW 202 0 min 0,0 UV-I 107 W/m 0,7 C 0,2 C 22,5 km/h (4 Bft) 100,00 %
05.12.2022 08:40 5,8 C 70 % 1019,0 hPa 0,0 l/m 14,5 km/h (3 Bft) S-SW 202 0 min 0,0 UV-I 95 W/m 0,8 C 0,3 C 20,9 km/h (4 Bft) 100,00 %
05.12.2022 08:35 6,0 C 69 % 1018,9 hPa 0,0 l/m 14,5 km/h (3 Bft) S-SW 202 0 min 0,0 UV-I 46 W/m 0,8 C 0,5 C 19,3 km/h (3 Bft) 100,00 %
05.12.2022 08:30 6,6 C 67 % 1018,8 hPa 0,0 l/m 14,5 km/h (3 Bft) S 180 0 min 0,0 UV-I 51 W/m 0,9 C 1,3 C 20,9 km/h (4 Bft) 94,74 %
05.12.2022 08:25 6,8 C 66 % 1018,8 hPa 0,0 l/m 14,5 km/h (3 Bft) S-SW 202 0 min 0,0 UV-I 58 W/m 0,9 C 1,5 C 20,9 km/h (4 Bft) 99,12 %
05.12.2022 08:20 6,6 C 67 % 1018,8 hPa 0,0 l/m 14,5 km/h (3 Bft) S-SW 202 0 min 0,0 UV-I 49 W/m 0,9 C 1,3 C 19,3 km/h (3 Bft) 99,12 %
05.12.2022 08:15 6,3 C 68 % 1018,8 hPa 0,0 l/m 14,5 km/h (3 Bft) S-SW 202 0 min 0,0 UV-I 35 W/m 0,8 C 0,9 C 17,7 km/h (3 Bft) 100,00 %
05.12.2022 08:10 6,3 C 68 % 1018,8 hPa 0,0 l/m 14,5 km/h (3 Bft) S-SW 202 0 min 0,0 UV-I 25 W/m 0,8 C 0,9 C 20,9 km/h (4 Bft) 100,00 %
05.12.2022 08:05 6,1 C 68 % 1018,8 hPa 0,0 l/m 17,7 km/h (3 Bft) S-SW 202 0 min 0,0 UV-I 21 W/m 0,6 C -0,8 C 25,7 km/h (4 Bft) 100,00 %
05.12.2022 08:00 6,0 C 70 % 1018,9 hPa 0,0 l/m 16,1 km/h (3 Bft) S 180 0 min 0,0 UV-I 18 W/m 1,0 C -0,2 C 24,1 km/h (4 Bft) 100,00 %
05.12.2022 07:55 5,8 C 70 % 1018,7 hPa 0,0 l/m 16,1 km/h (3 Bft) S 180 0 min 0,0 UV-I 16 W/m 0,8 C -0,5 C 29,0 km/h (5 Bft) 100,00 %
05.12.2022 07:50 5,6 C 71 % 1018,7 hPa 0,0 l/m 16,1 km/h (3 Bft) S 180 0 min 0,0 UV-I 14 W/m 0,8 C -0,7 C 29,0 km/h (5 Bft) 100,00 %
05.12.2022 07:45 5,4 C 71 % 1018,7 hPa 0,0 l/m 16,1 km/h (3 Bft) S 180 0 min 0,0 UV-I 12 W/m 0,6 C -1,0 C 25,7 km/h (4 Bft) 100,00 %
05.12.2022 07:40 5,4 C 71 % 1018,7 hPa 0,0 l/m 16,1 km/h (3 Bft) S 180 0 min 0,0 UV-I 11 W/m 0,6 C -1,0 C 25,7 km/h (4 Bft) 100,00 %
05.12.2022 07:35 5,4 C 71 % 1018,6 hPa 0,0 l/m 16,1 km/h (3 Bft) S-SW 202 0 min 0,0 UV-I 9 W/m 0,6 C -1,0 C 22,5 km/h (4 Bft) 100,00 %
05.12.2022 07:30 5,5 C 71 % 1018,6 hPa 0,0 l/m 16,1 km/h (3 Bft) S-SW 202 0 min 0,0 UV-I 5 W/m 0,7 C -0,9 C 22,5 km/h (4 Bft) 100,00 %
05.12.2022 07:25 5,6 C 71 % 1018,6 hPa 0,0 l/m 16,1 km/h (3 Bft) S-SW 202 0 min 0,0 UV-I 5 W/m 0,8 C -0,7 C 20,9 km/h (4 Bft) 100,00 %
05.12.2022 07:20 5,6 C 70 % 1018,5 hPa 0,0 l/m 16,1 km/h (3 Bft) S-SW 202 0 min 0,0 UV-I 0 W/m 0,6 C -0,7 C 22,5 km/h (4 Bft) 100,00 %
05.12.2022 07:15 5,6 C 71 % 1018,5 hPa 0,0 l/m 17,7 km/h (3 Bft) S-SW 202 0 min 0,0 UV-I 0 W/m 0,8 C -1,5 C 22,5 km/h (4 Bft) 100,00 %
05.12.2022 07:10 5,3 C 72 % 1018,4 hPa 0,0 l/m 16,1 km/h (3 Bft) S 180 0 min 0,0 UV-I 0 W/m 0,7 C -1,1 C 24,1 km/h (4 Bft) 100,00 %
05.12.2022 07:05 5,1 C 73 % 1018,4 hPa 0,0 l/m 14,5 km/h (3 Bft) S 180 0 min 0,0 UV-I 0 W/m 0,7 C -0,5 C 17,7 km/h (3 Bft) 97,37 %
05.12.2022 07:00 5,0 C 73 % 1018,4 hPa 0,0 l/m 14,5 km/h (3 Bft) S 180 0 min 0,0 UV-I 0 W/m 0,6 C -0,7 C 20,9 km/h (4 Bft) 100,00 %
05.12.2022 06:55 5,0 C 73 % 1018,4 hPa 0,0 l/m 14,5 km/h (3 Bft) S 180 0 min 0,0 UV-I 0 W/m 0,6 C -0,7 C 24,1 km/h (4 Bft) 100,00 %
05.12.2022 06:50 4,9 C 73 % 1018,3 hPa 0,0 l/m 14,5 km/h (3 Bft) S 180 0 min 0,0 UV-I 0 W/m 0,5 C -0,8 C 20,9 km/h (4 Bft) 100,00 %
05.12.2022 06:45 4,8 C 73 % 1018,3 hPa 0,0 l/m 14,5 km/h (3 Bft) S 180 0 min 0,0 UV-I 0 W/m 0,4 C -0,9 C 19,3 km/h (3 Bft) 100,00 %
05.12.2022 06:40 4,9 C 73 % 1018,3 hPa 0,0 l/m 12,9 km/h (3 Bft) S 180 0 min 0,0 UV-I 0 W/m 0,5 C 0,1 C 25,7 km/h (4 Bft) 96,49 %
05.12.2022 06:35 4,9 C 73 % 1018,3 hPa 0,0 l/m 11,3 km/h (2 Bft) S 180 0 min 0,0 UV-I 0 W/m 0,5 C 1,1 C 16,1 km/h (3 Bft) 85,09 %
05.12.2022 06:30 4,9 C 73 % 1018,4 hPa 0,0 l/m 11,3 km/h (2 Bft) S-SW 202 0 min 0,0 UV-I 0 W/m 0,5 C 1,1 C 16,1 km/h (3 Bft) 92,98 %
05.12.2022 06:25 4,9 C 73 % 1018,3 hPa 0,0 l/m 12,9 km/h (3 Bft) S-SW 202 0 min 0,0 UV-I 0 W/m 0,5 C 0,1 C 17,7 km/h (3 Bft) 96,49 %
05.12.2022 06:20 4,9 C 73 % 1018,4 hPa 0,0 l/m 14,5 km/h (3 Bft) S-SW 202 0 min 0,0 UV-I 0 W/m 0,5 C -0,8 C 20,9 km/h (4 Bft) 98,25 %
05.12.2022 06:15 4,8 C 73 % 1018,2 hPa 0,0 l/m 12,9 km/h (3 Bft) S-SW 202 0 min 0,0 UV-I 0 W/m 0,4 C -0,0 C 19,3 km/h (3 Bft) 99,12 %
05.12.2022 06:10 4,9 C 73 % 1018,2 hPa 0,0 l/m 11,3 km/h (2 Bft) S-SW 202 0 min 0,0 UV-I 0 W/m 0,5 C 1,1 C 16,1 km/h (3 Bft) 99,12 %
05.12.2022 06:05 4,8 C 73 % 1018,1 hPa 0,0 l/m 14,5 km/h (3 Bft) S-SW 202 0 min 0,0 UV-I 0 W/m 0,4 C -0,9 C 17,7 km/h (3 Bft) 100,00 %
05.12.2022 06:00 4,8 C 74 % 1018,0 hPa 0,0 l/m 14,5 km/h (3 Bft) S-SW 202 0 min 0,0 UV-I 0 W/m 0,6 C -0,9 C 19,3 km/h (3 Bft) 99,12 %
05.12.2022 05:55 4,7 C 74 % 1017,8 hPa 0,0 l/m 16,1 km/h (3 Bft) S-SW 202 0 min 0,0 UV-I 0 W/m 0,5 C -1,8 C 19,3 km/h (3 Bft) 100,00 %
05.12.2022 05:50 4,7 C 75 % 1017,9 hPa 0,0 l/m 14,5 km/h (3 Bft) S-SW 202 0 min 0,0 UV-I 0 W/m 0,7 C -1,0 C 24,1 km/h (4 Bft) 100,00 %
05.12.2022 05:45 4,7 C 74 % 1017,8 hPa 0,0 l/m 14,5 km/h (3 Bft) S-SW 202 0 min 0,0 UV-I 0 W/m 0,5 C -1,0 C 20,9 km/h (4 Bft) 96,49 %
05.12.2022 05:40 4,8 C 74 % 1017,9 hPa 0,0 l/m 14,5 km/h (3 Bft) S-SW 202 0 min 0,0 UV-I 0 W/m 0,6 C -0,9 C 20,9 km/h (4 Bft) 99,12 %
05.12.2022 05:35 4,9 C 73 % 1017,9 hPa 0,0 l/m 16,1 km/h (3 Bft) S-SW 202 0 min 0,0 UV-I 0 W/m 0,5 C -1,6 C 19,3 km/h (3 Bft) 100,00 %
05.12.2022 05:30 5,1 C 73 % 1018,0 hPa 0,0 l/m 14,5 km/h (3 Bft) S-SW 202 0 min 0,0 UV-I 0 W/m 0,7 C -0,5 C 19,3 km/h (3 Bft) 100,00 %
05.12.2022 05:25 5,0 C 73 % 1017,9 hPa 0,0 l/m 16,1 km/h (3 Bft) S-SW 202 0 min 0,0 UV-I 0 W/m 0,6 C -1,5 C 22,5 km/h (4 Bft) 100,00 %
05.12.2022 05:20 5,0 C 74 % 1017,8 hPa 0,0 l/m 14,5 km/h (3 Bft) S-SW 202 0 min 0,0 UV-I 0 W/m 0,8 C -0,7 C 20,9 km/h (4 Bft) 100,00 %
05.12.2022 05:15 4,9 C 74 % 1017,8 hPa 0,0 l/m 14,5 km/h (3 Bft) S-SW 202 0 min 0,0 UV-I 0 W/m 0,7 C -0,8 C 22,5 km/h (4 Bft) 100,00 %
05.12.2022 05:10 5,0 C 74 % 1017,8 hPa 0,0 l/m 14,5 km/h (3 Bft) S-SW 202 0 min 0,0 UV-I 0 W/m 0,8 C -0,7 C 17,7 km/h (3 Bft) 100,00 %
05.12.2022 05:05 5,1 C 74 % 1017,7 hPa 0,0 l/m 14,5 km/h (3 Bft) S-SW 202 0 min 0,0 UV-I 0 W/m 0,9 C -0,5 C 22,5 km/h (4 Bft) 100,00 %
05.12.2022 05:00 5,0 C 73 % 1017,8 hPa 0,0 l/m 16,1 km/h (3 Bft) S-SW 202 0 min 0,0 UV-I 0 W/m 0,6 C -1,5 C 22,5 km/h (4 Bft) 95,61 %
05.12.2022 04:55 4,7 C 75 % 1017,7 hPa 0,0 l/m 16,1 km/h (3 Bft) S-SW 202 0 min 0,0 UV-I 0 W/m 0,7 C -1,8 C 20,9 km/h (4 Bft) 100,00 %
05.12.2022 04:50 4,6 C 76 % 1017,7 hPa 0,0 l/m 14,5 km/h (3 Bft) S-SW 202 0 min 0,0 UV-I 0 W/m 0,7 C -1,1 C 20,9 km/h (4 Bft) 96,49 %
05.12.2022 04:45 4,7 C 76 % 1017,7 hPa 0,0 l/m 14,5 km/h (3 Bft) S-SW 202 0 min 0,0 UV-I 0 W/m 0,8 C -1,0 C 19,3 km/h (3 Bft) 100,00 %
05.12.2022 04:40 4,7 C 76 % 1017,6 hPa 0,0 l/m 14,5 km/h (3 Bft) S 180 0 min 0,0 UV-I 0 W/m 0,8 C -1,0 C 20,9 km/h (4 Bft) 100,00 %
05.12.2022 04:35 4,7 C 76 % 1017,6 hPa 0,0 l/m 12,9 km/h (3 Bft) S 180 0 min 0,0 UV-I 0 W/m 0,8 C -0,1 C 19,3 km/h (3 Bft) 97,37 %
05.12.2022 04:30 4,7 C 75 % 1017,5 hPa 0,0 l/m 12,9 km/h (3 Bft) S 180 0 min 0,0 UV-I 0 W/m 0,7 C -0,1 C 22,5 km/h (4 Bft) 84,21 %
05.12.2022 04:25 4,8 C 75 % 1017,5 hPa 0,0 l/m 12,9 km/h (3 Bft) S 180 0 min 0,0 UV-I 0 W/m 0,8 C -0,0 C 17,7 km/h (3 Bft) 94,74 %
05.12.2022 04:20 4,9 C 75 % 1017,5 hPa 0,0 l/m 12,9 km/h (3 Bft) S 180 0 min 0,0 UV-I 0 W/m 0,8 C 0,1 C 19,3 km/h (3 Bft) 92,98 %
05.12.2022 04:15 4,9 C 75 % 1017,4 hPa 0,0 l/m 11,3 km/h (2 Bft) S 180 0 min 0,0 UV-I 0 W/m 0,8 C 1,1 C 19,3 km/h (3 Bft) 85,09 %
05.12.2022 04:10 5,0 C 75 % 1017,4 hPa 0,0 l/m 9,7 km/h (2 Bft) S-SO 157 0 min 0,0 UV-I 0 W/m 0,9 C 2,3 C 14,5 km/h (3 Bft) 87,72 %
05.12.2022 04:05 5,0 C 74 % 1017,4 hPa 0,0 l/m 8,0 km/h (2 Bft) S 180 0 min 0,0 UV-I 0 W/m 0,8 C 3,6 C 12,9 km/h (3 Bft) 86,84 %
05.12.2022 04:00 5,0 C 74 % 1017,4 hPa 0,0 l/m 9,7 km/h (2 Bft) S 180 0 min 0,0 UV-I 0 W/m 0,8 C 2,3 C 12,9 km/h (3 Bft) 95,61 %
05.12.2022 03:55 5,0 C 75 % 1017,4 hPa 0,0 l/m 9,7 km/h (2 Bft) S-SW 202 0 min 0,0 UV-I 0 W/m 0,9 C 2,3 C 16,1 km/h (3 Bft) 77,19 %
05.12.2022 03:50 5,0 C 74 % 1017,4 hPa 0,0 l/m 11,3 km/h (2 Bft) S 180 0 min 0,0 UV-I 0 W/m 0,8 C 1,2 C 16,1 km/h (3 Bft) 84,21 %
05.12.2022 03:45 5,0 C 75 % 1017,4 hPa 0,0 l/m 11,3 km/h (2 Bft) S 180 0 min 0,0 UV-I 0 W/m 0,9 C 1,2 C 17,7 km/h (3 Bft) 78,07 %
05.12.2022 03:40 5,1 C 74 % 1017,3 hPa 0,0 l/m 12,9 km/h (3 Bft) S 180 0 min 0,0 UV-I 0 W/m 0,9 C 0,3 C 19,3 km/h (3 Bft) 94,74 %
05.12.2022 03:35 5,0 C 74 % 1017,3 hPa 0,0 l/m 12,9 km/h (3 Bft) S-SW 202 0 min 0,0 UV-I 0 W/m 0,8 C 0,2 C 19,3 km/h (3 Bft) 95,61 %
05.12.2022 03:30 4,8 C 75 % 1017,2 hPa 0,0 l/m 14,5 km/h (3 Bft) S-SW 202 0 min 0,0 UV-I 0 W/m 0,8 C -0,9 C 22,5 km/h (4 Bft) 100,00 %
05.12.2022 03:25 4,8 C 76 % 1017,2 hPa 0,0 l/m 14,5 km/h (3 Bft) S-SW 202 0 min 0,0 UV-I 0 W/m 0,9 C -0,9 C 20,9 km/h (4 Bft) 97,37 %
05.12.2022 03:20 4,6 C 77 % 1017,1 hPa 0,0 l/m 16,1 km/h (3 Bft) S-SW 202 0 min 0,0 UV-I 0 W/m 0,9 C -2,0 C 25,7 km/h (4 Bft) 100,00 %
05.12.2022 03:15 4,4 C 78 % 1017,3 hPa 0,0 l/m 16,1 km/h (3 Bft) S-SW 202 0 min 0,0 UV-I 0 W/m 0,9 C -2,2 C 25,7 km/h (4 Bft) 99,12 %
05.12.2022 03:10 4,4 C 78 % 1017,4 hPa 0,0 l/m 16,1 km/h (3 Bft) S-SW 202 0 min 0,0 UV-I 0 W/m 0,9 C -2,2 C 22,5 km/h (4 Bft) 100,00 %
05.12.2022 03:05 4,6 C 77 % 1017,4 hPa 0,0 l/m 16,1 km/h (3 Bft) S-SW 202 0 min 0,0 UV-I 0 W/m 0,9 C -2,0 C 27,4 km/h (4 Bft) 100,00 %
05.12.2022 03:00 4,6 C 77 % 1017,2 hPa 0,0 l/m 17,7 km/h (3 Bft) S-SW 202 0 min 0,0 UV-I 0 W/m 0,9 C -2,7 C 27,4 km/h (4 Bft) 100,00 %
05.12.2022 02:55 4,7 C 77 % 1017,2 hPa 0,0 l/m 16,1 km/h (3 Bft) S-SW 202 0 min 0,0 UV-I 0 W/m 1,0 C -1,8 C 25,7 km/h (4 Bft) 100,00 %
05.12.2022 02:50 4,8 C 77 % 1017,1 hPa 0,0 l/m 17,7 km/h (3 Bft) S-SW 202 0 min 0,0 UV-I 0 W/m 1,1 C -2,5 C 25,7 km/h (4 Bft) 98,25 %
05.12.2022 02:45 4,8 C 77 % 1017,2 hPa 0,0 l/m 16,1 km/h (3 Bft) S 180 0 min 0,0 UV-I 0 W/m 1,1 C -1,7 C 22,5 km/h (4 Bft) 99,12 %
05.12.2022 02:40 4,8 C 77 % 1017,0 hPa 0,0 l/m 14,5 km/h (3 Bft) S 180 0 min 0,0 UV-I 0 W/m 1,1 C -0,9 C 20,9 km/h (4 Bft) 100,00 %
05.12.2022 02:35 4,8 C 77 % 1017,0 hPa 0,0 l/m 16,1 km/h (3 Bft) S-SW 202 0 min 0,0 UV-I 0 W/m 1,1 C -1,7 C 25,7 km/h (4 Bft) 100,00 %
05.12.2022 02:30 4,7 C 78 % 1017,0 hPa 0,0 l/m 17,7 km/h (3 Bft) S-SW 202 0 min 0,0 UV-I 0 W/m 1,2 C -2,6 C 27,4 km/h (4 Bft) 100,00 %
05.12.2022 02:25 4,7 C 78 % 1017,2 hPa 0,0 l/m 17,7 km/h (3 Bft) S-SW 202 0 min 0,0 UV-I 0 W/m 1,2 C -2,6 C 29,0 km/h (5 Bft) 100,00 %
05.12.2022 02:20 4,8 C 78 % 1017,1 hPa 0,0 l/m 19,3 km/h (3 Bft) S-SW 202 0 min 0,0 UV-I 0 W/m 1,3 C -3,1 C 30,6 km/h (5 Bft) 99,12 %
05.12.2022 02:15 4,8 C 77 % 1017,0 hPa 0,0 l/m 19,3 km/h (3 Bft) S-SW 202 0 min 0,0 UV-I 0 W/m 1,1 C -3,1 C 29,0 km/h (5 Bft) 100,00 %
05.12.2022 02:10 4,9 C 77 % 1016,9 hPa 0,0 l/m 19,3 km/h (3 Bft) S-SW 202 0 min 0,0 UV-I 0 W/m 1,2 C -3,0 C 38,6 km/h (5 Bft) 100,00 %
05.12.2022 02:05 5,1 C 76 % 1017,0 hPa 0,0 l/m 20,9 km/h (4 Bft) S-SW 202 0 min 0,0 UV-I 0 W/m 1,2 C -3,4 C 35,4 km/h (5 Bft) 100,00 %
05.12.2022 02:00 5,3 C 75 % 1016,9 hPa 0,0 l/m 19,3 km/h (3 Bft) S-SW 202 0 min 0,0 UV-I 0 W/m 1,2 C -2,5 C 30,6 km/h (5 Bft) 100,00 %
05.12.2022 01:55 5,4 C 75 % 1016,9 hPa 0,0 l/m 22,5 km/h (4 Bft) S-SW 202 0 min 0,0 UV-I 0 W/m 1,3 C -3,6 C 33,8 km/h (5 Bft) 100,00 %
05.12.2022 01:50 5,4 C 75 % 1016,8 hPa 0,0 l/m 24,1 km/h (4 Bft) S-SW 202 0 min 0,0 UV-I 0 W/m 1,3 C -4,1 C 33,8 km/h (5 Bft) 100,00 %
05.12.2022 01:45 5,3 C 76 % 1016,7 hPa 0,0 l/m 25,7 km/h (4 Bft) S-SW 202 0 min 0,0 UV-I 0 W/m 1,4 C -4,8 C 33,8 km/h (5 Bft) 99,12 %
05.12.2022 01:40 5,3 C 76 % 1016,6 hPa 0,0 l/m 25,7 km/h (4 Bft) S-SW 202 0 min 0,0 UV-I 0 W/m 1,4 C -4,8 C 35,4 km/h (5 Bft) 100,00 %
05.12.2022 01:35 5,3 C 77 % 1016,5 hPa 0,0 l/m 24,1 km/h (4 Bft) S-SW 202 0 min 0,0 UV-I 0 W/m 1,6 C -4,2 C 40,2 km/h (6 Bft) 100,00 %
05.12.2022 01:30 5,2 C 77 % 1016,4 hPa 0,0 l/m 25,7 km/h (4 Bft) S-SW 202 0 min 0,0 UV-I 0 W/m 1,5 C -4,9 C 37,0 km/h (5 Bft) 97,37 %
05.12.2022 01:25 4,9 C 79 % 1016,5 hPa 0,0 l/m 24,1 km/h (4 Bft) S-SW 202 0 min 0,0 UV-I 0 W/m 1,6 C -4,8 C 33,8 km/h (5 Bft) 100,00 %
05.12.2022 01:20 4,6 C 80 % 1016,5 hPa 0,0 l/m 22,5 km/h (4 Bft) S-SW 202 0 min 0,0 UV-I 0 W/m 1,5 C -4,6 C 35,4 km/h (5 Bft) 100,00 %
05.12.2022 01:15 4,5 C 81 % 1016,5 hPa 0,0 l/m 22,5 km/h (4 Bft) S-SW 202 0 min 0,0 UV-I 0 W/m 1,5 C -4,8 C 35,4 km/h (5 Bft) 99,12 %
05.12.2022 01:10 4,4 C 81 % 1016,4 hPa 0,0 l/m 22,5 km/h (4 Bft) S-SW 202 0 min 0,0 UV-I 0 W/m 1,4 C -4,9 C 38,6 km/h (5 Bft) 100,00 %
05.12.2022 01:05 4,4 C 82 % 1016,4 hPa 0,0 l/m 20,9 km/h (4 Bft) S 180 0 min 0,0 UV-I 0 W/m 1,6 C -4,3 C 29,0 km/h (5 Bft) 96,49 %
05.12.2022 01:00 4,4 C 82 % 1016,2 hPa 0,0 l/m 20,9 km/h (4 Bft) S-SW 202 0 min 0,0 UV-I 0 W/m 1,6 C -4,3 C 38,6 km/h (5 Bft) 99,12 %
05.12.2022 00:55 4,2 C 83 % 1016,2 hPa 0,0 l/m 22,5 km/h (4 Bft) S 180 0 min 0,0 UV-I 0 W/m 1,6 C -5,2 C 32,2 km/h (5 Bft) 95,61 %
05.12.2022 00:50 4,1 C 84 % 1016,1 hPa 0,0 l/m 20,9 km/h (4 Bft) S-SW 202 0 min 0,0 UV-I 0 W/m 1,6 C -4,7 C 30,6 km/h (5 Bft) 92,98 %
05.12.2022 00:45 3,8 C 85 % 1016,2 hPa 0,0 l/m 19,3 km/h (3 Bft) S 180 0 min 0,0 UV-I 0 W/m 1,5 C -4,4 C 29,0 km/h (5 Bft) 91,23 %
05.12.2022 00:40 3,5 C 86 % 1016,2 hPa 0,0 l/m 17,7 km/h (3 Bft) S 180 0 min 0,0 UV-I 0 W/m 1,4 C -4,1 C 24,1 km/h (4 Bft) 92,98 %
05.12.2022 00:35 3,3 C 87 % 1016,2 hPa 0,0 l/m 16,1 km/h (3 Bft) S 180 0 min 0,0 UV-I 0 W/m 1,3 C -3,6 C 22,5 km/h (4 Bft) 82,46 %
05.12.2022 00:30 3,3 C 87 % 1016,2 hPa 0,0 l/m 16,1 km/h (3 Bft) S 180 0 min 0,0 UV-I 0 W/m 1,3 C -3,6 C 24,1 km/h (4 Bft) 85,96 %
05.12.2022 00:25 3,2 C 87 % 1016,2 hPa 0,0 l/m 16,1 km/h (3 Bft) S-SO 157 0 min 0,0 UV-I 0 W/m 1,2 C -3,7 C 32,2 km/h (5 Bft) 85,09 %
05.12.2022 00:20 3,1 C 88 % 1016,2 hPa 0,0 l/m 12,9 km/h (3 Bft) S-SO 157 0 min 0,0 UV-I 0 W/m 1,3 C -2,0 C 24,1 km/h (4 Bft) 80,70 %
05.12.2022 00:15 3,0 C 88 % 1016,3 hPa 0,0 l/m 9,7 km/h (2 Bft) SO 135 0 min 0,0 UV-I 0 W/m 1,2 C 0,1 C 16,1 km/h (3 Bft) 85,09 %
05.12.2022 00:10 3,1 C 88 % 1016,2 hPa 0,0 l/m 11,3 km/h (2 Bft) SO 135 0 min 0,0 UV-I 0 W/m 1,3 C -1,0 C 25,7 km/h (4 Bft) 90,35 %
05.12.2022 00:05 3,2 C 87 % 1016,1 hPa 0,0 l/m 6,4 km/h (2 Bft) SO 135 0 min 0,0 UV-I 0 W/m 1,2 C 3,2 C 12,9 km/h (3 Bft) 78,95 %
05.12.2022 00:00 3,4 C 87 % 1016,1 hPa 0,0 l/m 9,7 km/h (2 Bft) SO 135 0 min 0,0 UV-I 0 W/m 1,4 C 0,5 C 17,7 km/h (3 Bft) 92,98 %
_ Min-Zeit 13:25 08:25 00:00 - 12:00 - - - - - 13:30 16:40 12:00 03:55
Minimum _ -1,5 C 66 % 1016,1 hPa - 0,0 km/h (0 Bft) - - - - - -2,2 C -7,8 C 3,2 km/h (1 Bft) 77,19 %
_ Max-Zeit 08:25 16:25 16:00 00:00 01:30 - - 09:05 11:10 10:25 00:50 09:50 01:35 01:10
Maximum _ 6,8 C 97 % 1020,1 hPa 0,0 l/m 25,7 km/h
S-SW (4 Bft)
- - 5 min 1,0 UV-I 323 W/m 1,6 C 5,8 C 40,2 km/h
SW (6 Bft)
100,00 %
Durchschnitt _ 2,4 C 84 % 1018,7 hPa #0,0 l/m 11,1 km/h (2 Bft) S-SW - #3:55 h 0,8 UV-I 140 W/m -0,1 C -1,3 C 17,7 km/h (3 Bft) 97,11 %